Location: Fontevrault
(47.1823°N, 0.0493°E)
Time: 02:49:41
(UTC+00:00)

Cosmos 1459 Rocket - Pass Details

Date: 19 October 2021
Orbit: 936 x 1000 km, 83.0° (Epoch: 01 December)

Event Time Altitude Azimuth Distance (km) Brightness Sun altitude
Exits shadow 21:46:07 19° 323° (NW) 2,145 6.2 -45.4°
Drops below altitude 10° 21:48:37 10° 345° (NNW) 2,696 6.8 -45.7°
Sets 21:51:44 0° 360° (N) 3,636 7.5 -46.1°
